Погода в Новоселовке

Украина / Одесская область     45°40′39″N   29°15′49″E
темп.,
°C
ветер,
м/с
пор.,
м/с
влажн.,
%
обл.,
%
осадки,
мм/ч
давл.,
гПа
погр.,
м
5 марта, пт
пт523:00+8юз497019 0.0 1013161
02:00+7юз447420 0.0 101282
05:00+6з346533 0.0 101243
08:00+7ссз346417 0.0 1012130
11:00+12з11490 0.0 1012467
14:00+16з463529 0.0 10111165
17:00+14зюз4742100 0.0 1011275
20:00+11юз444559 0.0 101265
6 марта, сб
сб623:00+8ссз9147873 0.0 1014452
02:00+6ссз7127747 0.0 1017651
05:00+4с7107187 0.0 1019959
08:00+2с7116693 0.0 1023875
11:00+4с7945100 0.0 10251260
14:00+6с7836100 0.0 10261716
17:00+5с672966 0.0 10271968
20:00+2ссв354133 0.0 1029109
7 марта, вс
вс723:00+1сз22450 0.0 103122
02:000сз46640 0.0 1031143
05:00−1ссз23650 0.0 103059
08:00+1з12500 0.0 1030155
11:00+5зюз68410 0.0 10281451
14:00+7зюз79360 0.0 10251651
17:00+7юз79390 0.0 10221443
20:00+4ююз510530 0.0 1021246
8 марта, пн
пн823:00+2ююз486610 0.0 1020179
02:00+1юз4107133 0.0 1019227
05:000юз36850 0.0 1018102
08:00+2зюз23760 0.0 1018176
11:00+6ююз214818 0.0 1017617
14:00+8ююз333759 0.0 10161134
17:00+8зюз343967 0.0 10141024
20:00+5ю356735 0.0 101594
9 марта, вт
вт923:00+4ю227983 0.0 101522
02:00+3с117757 0.0 101522
05:00+2с511660 0.0 1016266
08:00+2с610680 0.0 1018511
11:00+5ссв78458 0.0 1020865
14:00+7ссв56384 0.0 10201383
17:00+5ссв663717 0.0 10201296
20:00+3ссв48488 0.0 1022292